sat.trackr.live / text

‹ back to catalog

STARLINK-35768

NORAD 66832 · 2025-280M

PAYLOAD ACTIVE UNKNOWN

§ Identity

Operator
Country
US
Launch date
2025-12-02
Launch site
AFWTR
Launch vehicle
Mass (kg)
RCS (m²)

Purposes: comms

External: N2YO · Heavens-Above · Gunter

§ Orbital elements

Epoch: 2026-05-25T03:00:33.166368Z

Period
96.11 min
Inclination
70.0007°
Eccentricity
0.0003650
Mean motion
14.98337601 rev/d
Perigee alt
569.5 km
Apogee alt
574.6 km
Semi-major
6,950.2 km
B*
1.3209e-4
RAAN
141.7995°
Arg perigee
260.9623°
Mean anomaly
99.1124°
Rev number
2,752

§ Raw data

STARLINK-357681 66832U 25280M   26145.12538387  .00001484  00000+0  13209-3 0  99912 66832  70.0007 141.7995 0003650 260.9623  99.1124 14.98337601 27523

JSON: /api/v1/satellites/66832 · /tle

For live sub-satellite position, see the globe view (requires WebGL).

§ Visibility from observer

Set your observer location to see the next 7 days of passes ≥ 10°. The values pass through the URL so the page stays shareable.

No JS? Fill the form by hand. The geolocation button needs JavaScript.